Погода в Краснодонском

Россия / Ростовская область     47°26′16″N   41°25′40″E
темп.,
°C
ветер,
м/с
пор.,
м/с
влажн.,
%
обл.,
%
осадки,
мм/ч
давл.,
гПа
погр.,
м
14 июня, пн
пн1400:00+18зюз11833 0.0 101211
03:00+17зсз11885 0.0 101211
06:00+19сз008223 0.0 101261
09:00+23всв22665 0.0 1012673
12:00+26вюв115491 0.8 10121484
15:00+27юз014773 1.2 10121968
18:00+25с246493 0.0 1011177
21:00+22всв2266100 0.0 101122
15 июня, вт
вт1500:00+20всв347395 0.0 101156
03:00+18всв33805 0.0 101042
06:00+19всв35849 0.0 1011129
09:00+25вюв4464100 0.3 1011584
12:00+27всв324944 0.3 10101364
15:00+27зюз215399 0.3 10101546
18:00+27зсз2259100 0.0 1009278
21:00+22юз11726 0.2 101011
16 июня, ср
ср1600:00+19зсз22845 0.4 101012
03:00+19ссв11850 0.6 101011
06:00+20всв23800 0.0 101098
09:00+26в45611 0.0 1010664
12:00+29в455015 0.0 10101434
15:00+30в56467 0.0 10091947
18:00+29всв585657 0.0 1008372
21:00+26всв6135893 0.0 1009367
17 июня, чт
чт1700:00+25всв7155319 0.0 1008358
03:00+21всв6147673 1.0 1009308
06:00+22всв61574100 0.0 1010436
09:00+25всв71165100 0.0 1011728
12:00+27всв5861100 0.0 1012695
15:00+20з6895100 2.1 1013157
18:00+20зюз71097100 4.7 1013256
21:00+20зсз6698100 24.7 1014175
18 июня, пт
пт1800:00+19сз3696100 5.8 1015275
03:00+19ссз61295100 9.9 1016459
06:00+18св71292100 1.5 1016561
09:00+16св61195100 12.8 1018470
12:00+20св5982100 2.4 1019758
15:00+22всв5970100 2.6 1019598
18:00+22св3769100 0.0 1019250
21:00+19св4116981 0.0 1019195